Change the Weather History Date:

Monday, December 24, 2012

  Actual Average Record
Temperature  
Mean Temperature 19 °F -  
Max Temperature 28 °F 30 °F 39 °F (2000)
Min Temperature 10 °F 23 °F 8 °F (2007)
Degree Days  
Heating Degree Days 46    
Moisture  
Dew Point 15 °F    
Average Humidity 80    
Maximum Humidity 86    
Minimum Humidity 74    
Precipitation  
Precipitation 0.00 in - - ()
Sea Level Pressure  
Sea Level Pressure 29.33 in    
Wind  
Wind Speed 10 mph (NE)    
Max Wind Speed 18 mph    
Max Gust Speed 24 mph    
Visibility 10 miles    
Events Snow    
Averages and records for this station are not official NWS values.
T = Trace of Precipitation, MM = Missing Value Source: NWS Daily Summary

Daily Weather History Graph

Daily Weather History Graph

Search for Another Location

Airport or City:

Trip Planner

Search our weather history database for the weather conditions in past years. The results will help you decide how hot, cold, wet, or windy it might be!

Date:

Astronomy

Dec. 24, 2012 Rise Set
Actual Time 10:53 AM AKST 5:43 PM AKST
Civil Twilight 10:05 AM AKST 6:32 PM AKST
Nautical Twilight 9:15 AM AKST 7:22 PM AKST
Astronomical Twilight 8:28 AM AKST 8:08 PM AKST
Moon 3:33 PM AKST (12/24) 7:28 AM AKST (12/24)
Length of Visible Light 8h 26m
Length of Day
6h 49m
Waxing Gibbous, 89% of the Moon is Illuminated
Dec 24
Waxing Gibbous
Dec 28
Full
Jan 4
Last Quarter
Jan 11
New
Jan 18
First Quarter

Hourly Weather History & Observations

Time (AKST) Temp. Windchill Dew Point Humidity Pressure Visibility Wind Dir Wind Speed Gust Speed Precip Events Conditions
12:17 AM 24.8 °F 12.9 °F 21.2 °F 86% 29.54 in 2.0 mi NNE 13.8 mph 24.2 mph 0.00 in Snow Light Snow
12:36 AM 24.8 °F 11.1 °F 19.4 °F 80% 29.53 in 4.0 mi North 18.4 mph 24.2 mph 0.00 in Snow Light Snow
12:53 AM 24.1 °F 13.1 °F 19.0 °F 81% 29.50 in 6.0 mi North 11.5 mph 21.9 mph 0.00 in Snow Light Snow
1:31 AM 23.0 °F 9.2 °F 15.8 °F 74% 29.52 in 10.0 mi North 17.3 mph 23.0 mph 0.00 in   Scattered Clouds
1:53 AM 21.9 °F 8.2 °F 15.1 °F 75% 29.48 in 10.0 mi North 16.1 mph - 0.00 in   Scattered Clouds
3:27 AM 19.4 °F 9.5 °F 12.2 °F 74% 29.49 in 10.0 mi NNW 8.1 mph - N/A   Mostly Cloudy
3:53 AM 19.0 °F 10.0 °F 12.0 °F 74% 29.45 in 10.0 mi North 6.9 mph - N/A   Mostly Cloudy
4:53 AM 18.0 °F 9.8 °F 10.9 °F 74% 29.44 in 10.0 mi NNW 5.8 mph - N/A   Mostly Cloudy
5:53 AM 19.0 °F 10.0 °F 12.0 °F 74% 29.41 in 10.0 mi NNW 6.9 mph - N/A   Mostly Cloudy
6:53 AM 19.0 °F 12.3 °F 12.0 °F 74% 29.39 in 10.0 mi North 4.6 mph - N/A   Overcast
7:53 AM 19.0 °F 9.0 °F 12.0 °F 74% 29.38 in 10.0 mi North 8.1 mph - N/A   Overcast
8:53 AM 17.1 °F 8.7 °F 10.0 °F 74% 29.36 in 10.0 mi NNW 5.8 mph - N/A   Overcast
9:26 AM 14.0 °F 5.1 °F 8.6 °F 79% 29.38 in 10.0 mi NNW 5.8 mph - N/A   Scattered Clouds
9:43 AM 14.0 °F - 8.6 °F 79% 29.37 in 10.0 mi Calm Calm - N/A   Mostly Cloudy
9:53 AM 12.9 °F - 7.0 °F 77% 29.34 in 10.0 mi Calm Calm - N/A   Mostly Cloudy
10:04 AM 14.0 °F 8.2 °F 8.6 °F 79% 29.37 in 10.0 mi ENE 3.5 mph - N/A   Mostly Cloudy
10:40 AM 10.4 °F 2.2 °F 6.8 °F 85% 29.35 in 10.0 mi ENE 4.6 mph - N/A   Overcast
10:53 AM 12.0 °F - 7.0 °F 80% 29.32 in 10.0 mi Calm Calm - N/A   Overcast
11:15 AM 12.2 °F 1.7 °F 8.6 °F 85% 29.34 in 10.0 mi East 6.9 mph - N/A   Overcast
11:53 AM 12.9 °F 2.6 °F 9.0 °F 84% 29.31 in 10.0 mi East 6.9 mph - N/A   Mostly Cloudy
12:53 PM 16.0 °F 7.4 °F 12.0 °F 84% 29.29 in 10.0 mi East 5.8 mph - N/A   Overcast
1:53 PM 19.0 °F 12.3 °F 12.9 °F 77% 29.27 in 10.0 mi East 4.6 mph - N/A   Overcast
2:04 PM 19.4 °F 11.5 °F 14.0 °F 80% 29.30 in 10.0 mi ENE 5.8 mph - N/A   Overcast
2:24 PM 19.4 °F 11.5 °F 15.8 °F 86% 29.29 in 10.0 mi East 5.8 mph - N/A   Overcast
2:53 PM 19.9 °F 11.1 °F 14.0 °F 78% 29.25 in 10.0 mi ENE 6.9 mph - N/A   Overcast
3:53 PM 19.0 °F 8.2 °F 14.0 °F 81% 29.23 in 10.0 mi ENE 9.2 mph - N/A   Clear
4:53 PM 19.9 °F 11.1 °F 15.1 °F 81% 29.21 in 10.0 mi ENE 6.9 mph - N/A   Scattered Clouds
5:53 PM 21.9 °F 11.7 °F 16.0 °F 78% 29.20 in 10.0 mi East 9.2 mph - N/A   Mostly Cloudy
6:53 PM 23.0 °F 13.9 °F 17.1 °F 78% 29.19 in 10.0 mi NE 8.1 mph - N/A   Overcast
7:53 PM 25.0 °F 13.6 °F 19.9 °F 81% 29.19 in 10.0 mi East 12.7 mph - N/A   Overcast
8:53 PM 25.0 °F 13.6 °F 21.0 °F 85% 29.18 in 10.0 mi East 12.7 mph - N/A   Mostly Cloudy
9:50 PM 26.6 °F 16.8 °F 21.2 °F 80% 29.22 in 10.0 mi East 10.4 mph - N/A   Overcast
9:53 PM 26.1 °F 16.2 °F 21.9 °F 84% 29.19 in 10.0 mi East 10.4 mph - N/A   Overcast
10:18 PM 26.6 °F 16.8 °F 23.0 °F 86% 29.21 in 10.0 mi East 10.4 mph - N/A   Overcast
10:53 PM 28.0 °F 17.0 °F 24.1 °F 85% 29.19 in 10.0 mi East 13.8 mph - N/A   Overcast
11:35 PM 28.4 °F 17.5 °F 23.0 °F 80% 29.22 in 10.0 mi ESE 13.8 mph - N/A   Mostly Cloudy
11:53 PM 28.0 °F 18.1 °F 23.0 °F 81% 29.19 in 10.0 mi ESE 11.5 mph - N/A   Mostly Cloudy